Weather History for KDFI - January, 2012

Change the Weather History Date:

Wednesday, January 11, 2012

  Actual Average Record
Temperature  
Mean Temperature 37 °F -  
Max Temperature 46 °F 29 °F 59 °F (2013)
Min Temperature 28 °F 12 °F -18 °F (1982)
Degree Days  
Heating Degree Days 28    
Moisture  
Dew Point 33 °F    
Average Humidity 83    
Maximum Humidity 93    
Minimum Humidity 56    
Precipitation  
Precipitation 0.10 in - - ()
Sea Level Pressure  
Sea Level Pressure 29.62 in    
Wind  
Wind Speed 5 mph (NE)    
Max Wind Speed 9 mph    
Max Gust Speed -    
Visibility 6 miles    
Events Rain    
Averages and records for this station are not official NWS values.
T = Trace of Precipitation, MM = Missing Value Source: NWS Daily Summary

Daily Weather History Graph

Daily Weather History Graph

Search for Another Location

Airport or City:

Trip Planner

Search our weather history database for the weather conditions in past years. The results will help you decide how hot, cold, wet, or windy it might be!

Date:

Astronomy

Jan. 11, 2012 Rise Set
Actual Time 8:02 AM EST 5:28 PM EST
Civil Twilight 7:32 AM EST 5:59 PM EST
Nautical Twilight 6:57 AM EST 6:33 PM EST
Astronomical Twilight 6:24 AM EST 7:06 PM EST
Moon 8:28 PM EST (1/11) 9:12 AM EST (1/11)
Length of Visible Light 10h 26m
Length of Day
9h 25m
Waning Gibbous, 93% of the Moon is Illuminated
Jan 11
Waning Gibbous
Jan 16
Last Quarter
Jan 23
New
Jan 30
First Quarter
Feb 7
Full

Hourly Weather History & Observations

Time (EST) Temp. Windchill Dew Point Humidity Pressure Visibility Wind Dir Wind Speed Gust Speed Precip Events Conditions
12:53 AM 34.0 °F 31.0 °F 28.9 °F 82% 29.89 in 10.0 mi SSE 3.5 mph - N/A   Clear
1:53 AM 34.0 °F 31.0 °F 28.0 °F 79% 29.86 in 9.0 mi SSE 3.5 mph - N/A   Clear
2:53 AM 35.1 °F - 28.9 °F 78% 29.85 in 10.0 mi Calm Calm - N/A   Clear
3:53 AM 34.0 °F 29.8 °F 28.0 °F 79% 29.83 in 10.0 mi South 4.6 mph - N/A   Clear
4:53 AM 34.0 °F - 28.0 °F 79% 29.81 in 10.0 mi Calm Calm - N/A   Clear
6:53 AM 28.9 °F 25.2 °F 25.0 °F 85% 29.77 in 5.0 mi NE 3.5 mph - N/A   Clear
7:53 AM 28.0 °F 24.2 °F 24.1 °F 85% 29.78 in 6.0 mi ENE 3.5 mph - N/A   Clear
8:53 AM 32.0 °F - 27.0 °F 82% 29.78 in 7.0 mi Calm Calm - N/A   Clear
9:53 AM 35.1 °F 31.0 °F 28.9 °F 78% 29.76 in 7.0 mi ENE 4.6 mph - N/A   Clear
10:53 AM 37.0 °F 33.3 °F 30.9 °F 79% 29.74 in 9.0 mi NNE 4.6 mph - N/A   Clear
11:53 AM 41.0 °F 36.4 °F 32.0 °F 70% 29.70 in 10.0 mi ENE 6.9 mph - N/A   Clear
12:53 PM 45.0 °F 40.1 °F 34.0 °F 65% 29.66 in 10.0 mi East 9.2 mph - N/A   Mostly Cloudy
1:53 PM 46.9 °F - 32.0 °F 56% 29.60 in 10.0 mi ENE 6.9 mph - N/A   Overcast
2:53 PM 46.9 °F - 33.1 °F 59% 29.56 in 10.0 mi ENE 6.9 mph - N/A   Overcast
4:53 PM 42.1 °F 36.6 °F 37.0 °F 82% 29.54 in 6.0 mi NE 9.2 mph - 0.04 in Rain Light Rain
6:34 PM 39.2 °F 33.6 °F 35.6 °F 87% 29.52 in 3.0 mi NE 8.1 mph - 0.01 in Rain Light Rain
6:53 PM 39.0 °F 32.8 °F 36.0 °F 89% 29.54 in 2.5 mi NE 9.2 mph - 0.01 in Rain Light Rain
6:59 PM 39.2 °F 33.6 °F 35.6 °F 87% 29.52 in 2.0 mi NE 8.1 mph - 0.01 in Rain Light Rain
7:10 PM 39.2 °F 34.2 °F 35.6 °F 87% 29.51 in 1.8 mi NE 6.9 mph - 0.02 in Rain Light Rain
7:22 PM 39.2 °F 34.2 °F 35.6 °F 87% 29.51 in 2.0 mi NE 6.9 mph - 0.03 in Rain Light Rain
7:39 PM 39.2 °F 33.6 °F 35.6 °F 87% 29.50 in 2.5 mi NE 8.1 mph - 0.04 in Rain Light Rain
7:53 PM 39.0 °F 33.4 °F 36.0 °F 89% 29.52 in 2.0 mi NE 8.1 mph - 0.04 in Rain Light Rain
8:30 PM 39.2 °F 33.6 °F 35.6 °F 87% 29.49 in 3.0 mi NE 8.1 mph - 0.01 in Rain Light Rain
8:53 PM 39.0 °F 33.4 °F 36.0 °F 89% 29.51 in 3.0 mi NE 8.1 mph - 0.01 in   Overcast
9:22 PM 39.2 °F 33.6 °F 35.6 °F 87% 29.48 in 3.0 mi NE 8.1 mph - N/A   Overcast
9:45 PM 39.2 °F 34.2 °F 37.4 °F 93% 29.46 in 2.5 mi NE 6.9 mph - N/A   Overcast
9:53 PM 39.0 °F 34.0 °F 37.0 °F 93% 29.48 in 2.5 mi ENE 6.9 mph - N/A   Overcast
10:30 PM 39.2 °F 35.0 °F 37.4 °F 93% 29.45 in 3.0 mi NE 5.8 mph - N/A   Overcast
10:53 PM 39.9 °F 35.8 °F 37.0 °F 89% 29.46 in 4.0 mi NE 5.8 mph - N/A   Overcast
11:53 PM 39.9 °F 35.8 °F 37.9 °F 93% 29.46 in 3.0 mi North 5.8 mph - 0.00 in Rain Light Rain